Regional Weather Roundup
Issued by NWS Binghamton, NY

Home | Current Version | Previous Version | Text Only | Print | Product List | Glossary On
Versions: 1 2 3 4 5 6 7 8 9 10 11 12 13 14 15 16 17 18 19 20 21 22 23 24 25 26 27 28 29 30 31 32 33 34 35 36 37 38 39 40 41 42 43 44 45 46 47 48 49 50
000
ASUS41 KBGM 312010
RWRBGM
RWRBGM
BINGHAMTON REGIONAL WEATHER ROUNDUP
NATIONAL WEATHER SERVICE BINGHAMTON NY
400 PM EDT MON AUG 31 2015

Note: "fair" indicates few or no clouds below 12,000 feet with no
significant weather and/or obstructions to visibility.

* = Station(s) that does not report precipitation, such as rain,
snow, etc, also no thunder or fog.

!NYZ009-015>018-022>025-036-037-044>046-055>057-062-312100
...CENTRAL NEW YORK...

CITY           SKY/WX    TMP DP  RH WIND       PRES   REMARKS
BINGHAMTON     MOSUNNY   82  64  54 NW12      30.04F
CORTLAND       FAIR      82  61  47 W14       30.04F
DANSVILLE      PTSUNNY   85  64  49 NW13      30.02F HX  86
ELMIRA         MOSUNNY   87  64  46 NW9       30.00F HX  88
ITHACA         MOSUNNY   83  65  54 NW9       30.04S HX  85
HORNELL        SUNNY     84  63  48 NW12        N/A  HX  85
MONTICELLO     MOSUNNY   82  64  54 W9        30.03F
NORWICH        MOSUNNY   82  61  47 N6        30.01F
ONEONTA        SUNNY     79  61  53 W8G16     30.04S
PENN YAN       MOSUNNY   84  64  50 W12       30.03S HX  85
ROME           SUNNY     82  64  54 W17       29.99F
SIDNEY         MOSUNNY   82  66  57 NW8       30.01S HX  85
SYRACUSE       MOSUNNY   82  67  60 NW12      29.99F
$$

!PAZ038>040-043-044-047-048-072-312100
...NORTHEAST PENNSYLVANIA...

CITY           SKY/WX    TMP DP  RH WIND       PRES   REMARKS
HAZLETON       MOSUNNY   82  64  54 NW12      30.09F
SCRANTON       MOSUNNY   76  76 100 CALM      30.01F
TOWANDA*       MOSUNNY   86  66  51 MISG      30.01S HX  88
$$
&&
KEY
WCI = WIND CHILL INDEX
VSB = VISIBILITY
HX  = HEAT INDEX
$$


USA.gov is the U.S. government's official web portal to all federal, state and local government web resources and services.